Terug naar catalogus

FORMOSAT 3C

ActiefWeerLEO
NORAD 29049·PAYLOAD·🇹🇼 Taiwan

Gelanceerd Apr 15, 2006 vanaf Vandenberg Space Force Base

Loading…

Volgende Passages (komende 24 uur)

TLE

VersSource: Space-Track

Epoch: Sep 14, 2026, 14:20 UTC

1 29049U 06011C   26257.59751390  .00000280  00000-0  12019-3 0  9999
2 29049  72.0172 221.0014 0032280  49.4038 310.9901 14.31459004 65463

Volg FORMOSAT 3C in realtime met AllMySat

Download on the App Store